Погода в Термале

Турция     40°36′19″N   29°10′26″E
темп.,
°C
ветер,
м/с
пор.,
м/с
влажн.,
%
обл.,
%
осадки,
мм/ч
давл.,
гПа
погр.,
м
27 ноября, сб
сб2700:00+16юз9195220 0.0 10081132
03:00+16юз9175968 0.1 10081141
06:00+14юз41078100 0.1 1009335
09:00+13ю36755 0.1 1011199
12:00+19юз7165123 0.0 10112007
15:00+19юз7154666 0.0 10092093
18:00+15юз4106195 0.0 1010238
21:00+15ююз3762100 0.0 1010263
28 ноября, вс
вс2800:00+13ююз1266100 0.0 101035
03:00+12ююв3783100 1.6 1010352
06:00+12юв388581 1.6 1007321
09:00+13ююз49712 1.6 1007418
12:00+18юз101856100 0.1 10081914
15:00+18зюз9165599 0.2 10071836
18:00+15юз356254 0.0 100799
21:00+14ююз265882 0.0 1008171
29 ноября, пн
пн2900:00+13юв24650 0.0 100767
03:00+13ююв356035 0.0 100699
06:00+16ююв475034 0.0 1004183
09:00+20ююз102339100 0.0 10041326
12:00+20ююз51142100 0.1 1004572
15:00+20юз102046100 0.1 10031988
18:00+16зюз132765100 2.0 10052166
21:00+14юз102974100 4.3 10052304
30 ноября, вт
вт3000:00+13зюз12226718 0.5 10061400
03:00+12зюз917652 0.7 10071147
06:00+10юз47734 0.0 1006291
09:00+12ююз7166252 0.0 10041019
12:00+11юз102073100 3.1 10032119
15:00+12зюз12216646 5.3 10032285
18:00+8з5995100 3.0 1008860
21:00+6юз1285100 6.9 1014353
1 декабря, ср
ср100:00+6ссз018591 0.0 1014143
03:00+6ссв2385100 0.1 1014211
06:00+4с3596100 3.3 1014574
09:00+3зсз1296100 8.9 1016441
12:00+5з228785 0.2 1018519
15:00+5юз337422 0.3 1017585
18:00+3зюз22765 0.0 101831
21:00+3юз227929 0.0 101922